Regional Weather Roundup
Issued by NWS

Home | Current Version | Previous Version | Text Only | Print | Product List | Glossary Off
Versions: 1 2 3 4 5 6 7 8 9 10 11 12 13 14 15 16 17 18 19 20 21 22 23 24 25 26 27 28 29 30 31 32 33 34 35 36 37 38 39 40 41 42 43 44 45 46 47 48 49 50

000
ASUS43 KLMK 231302
RWRKY
KENTUCKY REGIONAL WEATHER ROUNDUP
NATIONAL WEATHER SERVICE LOUISVILLE KY
900 AM EDT SAT JUL 23 2016

NOTE "FAIR" INDICATES FEW OR NO CLOUDS BELOW 12,000 FEET
WITH NO SIGNIFICANT WEATHER AND/OR OBSTRUCTIONS TO VISIBILITY.

KYZ001>023-026-027-061>063-070>075-231400-
WESTERN AND SOUTH CENTRAL KENTUCKY

CITY           SKY/WX    TMP DP  RH WIND       PRES   REMARKS
PADUCAH        MOSUNNY   78  74  87 SE8       29.99R
HENDERSON      MOSUNNY   77  73  88 CALM      29.99S
OWENSBORO      MOSUNNY   80  75  84 SE6       30.01S
HOPKINSVILLE   MOSUNNY   78  74  87 CALM      30.02R
BOWLING GREEN  PTSUNNY   77  74  90 CALM      30.03S FOG
GLASGOW        NOT AVBL
$$

KYZ024-025-028>034-038-045-046-053-231400-
NORTH CENTRAL KENTUCKY

CITY           SKY/WX    TMP DP  RH WIND       PRES   REMARKS
LOUISVILLE/SDF MOSUNNY   79  72  79 SE5       30.03R
LOUISVILLE/LOU SUNNY     78  71  79 CALM      30.03S
FORT KNOX      MOSUNNY   76  73  90 SE2       30.03R
$$

KYZ035>037-039>044-047>052-055>060-089>105-231400-
NORTHEAST KENTUCKY

CITY           SKY/WX    TMP DP  RH WIND       PRES   REMARKS
LEXINGTON      SUNNY     77  71  82 CALM      30.06R
COVINGTON      CLOUDY    77  75  93 SE6       30.04R FOG
FRANKFORT      MOSUNNY   77  71  82 SE3       30.04R
$$

KYZ054-064>069-076>088-106>120-231400-
SOUTHEAST KENTUCKY

CITY           SKY/WX    TMP DP  RH WIND       PRES   REMARKS
JACKSON        CLOUDY    74  71  91 CALM      30.08R
LONDON         MOSUNNY   78  70  76 CALM      30.07R
SOMERSET       SUNNY     73  73 100 CALM      30.07S
MIDDLESBORO    MOSUNNY   76  73  87 CALM      30.08S
MONTICELLO     CLOUDY   N/A N/A N/A VRB6      30.07R
$$




USA.gov is the U.S. government's official web portal to all federal, state and local government web resources and services.